Location: Newark
(32.0500°N, 131.1833°E)
Time: 12:44:52
(UTC+00:00)

Envisat - Visible Passes

Search period start: 23 September 2020 00:00
Search period end: 03 October 2020 00:00
Orbit: 764 x 766 km, 98.1° (Epoch: 23 September)

Date Brightness Start Highest point End Pass type
(mag) Time Alt. Az. Time Alt. Az. Time Alt. Az.
23 Sep 6.7 19:54:39 10° E 19:55:16 10° E 19:55:53 10° E visible
25 Sep 6.1 09:43:05 10° SW 09:46:30 18° W 09:49:56 10° NW visible
25 Sep 5.9 20:17:12 10° NE 20:20:55 20° E 20:24:37 10° SE visible
27 Sep 4.8 20:41:46 10° NNE 20:46:29 38° E 20:51:09 10° SSE visible
28 Sep 5.8 09:31:03 10° SSW 09:35:04 24° W 09:39:07 10° NW visible
28 Sep 6.1 20:06:30 10° ENE 20:09:28 16° E 20:12:26 10° SE visible
30 Sep 6.4 09:58:40 10° WSW 10:00:42 12° W 10:02:43 10° WNW visible
30 Sep 5.3 20:30:41 10° NE 20:35:04 29° E 20:39:26 10° SSE visible
01 Oct 5.3 09:19:13 10° SSW 09:23:39 31° W 09:28:07 10° NW visible
01 Oct 6.5 19:56:21 10° ENE 19:58:01 11° E 19:59:41 10° ESE visible
